This is the latest recevied weather packets stored in our database for station/object HB9CJD-1. If no packets are shown the sender has not sent any weather packets the latest 10 day(s).
| Time | Temp. | Humidity | Pressure | Rain* | Wind** | Luminosity | Snow |
|---|---|---|---|---|---|---|---|
| 1777716449 | 21.11° C | 45% | 1024.1 hPa | - | - | - | - |
| 1777716449 | 21.11° C | 45% | 1024.1 hPa | - | - | - | - |
| 1777715846 | 20.56° C | 48% | 1024.3 hPa | - | - | - | - |
| 1777715846 | 20.56° C | 48% | 1024.3 hPa | - | - | - | - |
| 1777715242 | 20.56° C | 48% | 1024.4 hPa | - | - | - | - |
| 1777715242 | 20.56° C | 48% | 1024.4 hPa | - | - | - | - |
| 1777714639 | 20.56° C | 46% | 1024.5 hPa | - | - | - | - |
| 1777714639 | 20.56° C | 46% | 1024.5 hPa | - | - | - | - |
| 1777714036 | 20.56° C | 47% | 1024.5 hPa | - | - | - | - |
| 1777714036 | 20.56° C | 47% | 1024.5 hPa | - | - | - | - |
| 1777713433 | 19.44° C | 47% | 1024.7 hPa | - | - | - | - |
| 1777713433 | 19.44° C | 47% | 1024.7 hPa | - | - | - | - |
| 1777712830 | 19.44° C | 50% | 1024.7 hPa | - | - | - | - |
| 1777712829 | 19.44° C | 50% | 1024.7 hPa | - | - | - | - |
| 1777712226 | 18.89° C | 46% | 1024.8 hPa | - | - | - | - |
| 1777712226 | 18.89° C | 46% | 1024.8 hPa | - | - | - | - |
| 1777711623 | 18.89° C | 46% | 1024.8 hPa | - | - | - | - |
| 1777711623 | 18.89° C | 46% | 1024.8 hPa | - | - | - | - |
| 1777711020 | 18.33° C | 49% | 1024.9 hPa | - | - | - | - |
| 1777711020 | 18.33° C | 49% | 1024.9 hPa | - | - | - | - |
| 1777710416 | 17.78° C | 48% | 1024.9 hPa | - | - | - | - |
| 1777710416 | 17.78° C | 48% | 1024.9 hPa | - | - | - | - |
| 1777709813 | 17.78° C | 49% | 1024.9 hPa | - | - | - | - |
| 1777709813 | 17.78° C | 49% | 1024.9 hPa | - | - | - | - |
| 1777709210 | 16.67° C | 49% | 1024.9 hPa | - | - | - | - |
* Rain since midnight (hover to see other rain measurements)
** Current wind speed in m/s (hover to see current wind gust speed)